Location: Asheville, NC
(35.6000°N, 82.5500°W)
Time: 01:24:42
(UTC-04:00)

CUTE-I - Pass Details

Date: 04 January 2018
Orbit: 812 x 824 km, 98.7° (Epoch: 20 July)

Event Time Altitude Azimuth Distance (km) Brightness Sun altitude
Rises 19:15:43 0° 205° (SSW) 3,335 ? -20.8°
Reaches altitude 10° 19:18:47 10° 223° (SW) 2,405 ? -21.4°
Maximum altitude 19:22:24 19° 266° (W) 1,880 ? -22.1°
Drops below altitude 10° 19:26:03 10° 310° (NW) 2,410 ? -22.9°
Sets 19:29:08 0° 328° (NNW) 3,344 ? -23.5°
